sat.trackr.live / text

‹ back to catalog

STARLINK-11373 [DTC]

NORAD 61582 · 2024-187J

PAYLOAD ACTIVE UNKNOWN

§ Identity

Operator
Country
US
Launch date
2024-10-18
Launch site
AFETR
Launch vehicle
Mass (kg)
RCS (m²)

Purposes: comms

External: N2YO · Heavens-Above · Gunter

§ Orbital elements

Epoch: 2026-05-24T18:12:23.811552Z

Period
91.74 min
Inclination
53.1607°
Eccentricity
0.0001114
Mean motion
15.69708293 rev/d
Perigee alt
359.0 km
Apogee alt
360.5 km
Semi-major
6,737.9 km
B*
1.6074e-6
RAAN
281.5631°
Arg perigee
88.6090°
Mean anomaly
271.5056°
Rev number
9,269

§ Raw data

STARLINK-11373 [DTC]1 61582U 24187J   26144.75860893 -.00000394  00000+0  16074-5 0  99962 61582  53.1607 281.5631 0001114  88.6090 271.5056 15.69708293 92692

JSON: /api/v1/satellites/61582 · /tle

For live sub-satellite position, see the globe view (requires WebGL).

§ Visibility from observer

Set your observer location to see the next 7 days of passes ≥ 10°. The values pass through the URL so the page stays shareable.

No JS? Fill the form by hand. The geolocation button needs JavaScript.